Weather History for KSGF - May, 2013

Change the Weather History Date:

Tuesday, May 28, 2013

  Actual Average Record
Temperature  
Mean Temperature 75 °F 68 °F  
Max Temperature 83 °F 79 °F 90 °F (2012)
Min Temperature 67 °F 58 °F 40 °F (1947)
Degree Days  
Heating Degree Days 0 1  
Month to date heating degree days 142 91  
Since 1 July heating degree days 4494 4565  
Cooling Degree Days 10 5  
Month to date cooling degree days 85 74  
Year to date cooling degree days 102 99  
Growing Degree Days 26 (Base 50)    
Moisture  
Dew Point 65 °F    
Average Humidity 71    
Maximum Humidity 84    
Minimum Humidity 58    
Precipitation  
Precipitation 0.04 in 0.15 in 1.62 in (1935)
Month to date precipitation 3.37 4.66  
Year to date precipitation 19.12 17.59  
Snow  
Snow 0.00 in - - ()
Month to date snowfall 1.4  
Since 1 July snowfall 12.7  
Snow Depth 0.00 in    
Sea Level Pressure  
Sea Level Pressure 29.81 in    
Wind  
Wind Speed 15 mph (South)    
Max Wind Speed 24 mph    
Max Gust Speed 31 mph    
Visibility 10 miles    
Events Rain , Thunderstorm    
T = Trace of Precipitation, MM = Missing Value Source: NWS Daily Summary

Daily Weather History Graph

Daily Weather History Graph

Search for Another Location

Airport or City:

Trip Planner

Search our weather history database for the weather conditions in past years. The results will help you decide how hot, cold, wet, or windy it might be!

Date:

Astronomy

May. 28, 2013 Rise Set
Actual Time 5:56 AM CDT 8:25 PM CDT
Civil Twilight 5:26 AM CDT 8:55 PM CDT
Nautical Twilight 4:48 AM CDT 9:33 PM CDT
Astronomical Twilight 4:07 AM CDT 10:14 PM CDT
Moon 11:52 PM CDT 9:43 AM CDT
Length of Visible Light 15h 29m
Length of Day
14h 29m
Waning Gibbous, 82% of the Moon is Illuminated
May 28
Waning Gibbous
May 31
Last Quarter
Jun 8
New
Jun 16
First Quarter
Jun 23
Full

Hourly Weather History & Observations

Time (CDT) Temp. Heat Index Dew Point Humidity Pressure Visibility Wind Dir Wind Speed Gust Speed Precip Events Conditions
12:52 AM 72.0 °F - 63.0 °F 73% 29.78 in 10.0 mi SSE 13.8 mph - N/A   Clear
1:52 AM 72.0 °F - 63.0 °F 73% 29.73 in 10.0 mi SSE 18.4 mph - N/A   Clear
2:52 AM 71.1 °F - 63.0 °F 75% 29.74 in 10.0 mi South 13.8 mph - N/A   Clear
3:52 AM 71.1 °F - 63.0 °F 75% 29.74 in 10.0 mi South 11.5 mph - N/A   Clear
4:52 AM 70.0 °F - 64.0 °F 81% 29.78 in 10.0 mi South 10.4 mph - 0.00 in   Partly Cloudy
5:52 AM 71.1 °F - 64.0 °F 78% 29.78 in 10.0 mi South 12.7 mph - N/A   Clear
6:52 AM 71.1 °F - 64.0 °F 78% 29.79 in 10.0 mi South 15.0 mph - N/A   Clear
7:52 AM 72.0 °F - 64.9 °F 78% 29.81 in 10.0 mi South 13.8 mph - N/A   Clear
8:52 AM 73.0 °F - 66.0 °F 79% 29.81 in 10.0 mi South 19.6 mph 25.3 mph N/A   Clear
9:52 AM 72.0 °F - 66.9 °F 84% 29.82 in 10.0 mi South 15.0 mph 23.0 mph 0.00 in Rain Light Rain
10:24 AM 73.0 °F - 66.0 °F 79% 29.86 in 10.0 mi South 19.6 mph 28.8 mph 0.00 in Thunderstorm Clear
10:52 AM 72.0 °F - 66.0 °F 81% 29.82 in 10.0 mi South 21.9 mph 27.6 mph 0.00 in Thunderstorm Scattered Clouds
11:04 AM 73.0 °F - 66.0 °F 79% 29.86 in 10.0 mi South 20.7 mph 28.8 mph 0.00 in Rain , Thunderstorm Light Thunderstorms and Rain
11:30 AM 73.0 °F - 66.0 °F 79% 29.87 in 10.0 mi South 19.6 mph 27.6 mph 0.04 in Rain Light Rain
11:52 AM 73.0 °F - 64.9 °F 76% 29.85 in 10.0 mi South 18.4 mph - 0.04 in   Clear
12:52 PM 75.0 °F - 66.0 °F 73% 29.82 in 10.0 mi South 16.1 mph - N/A   Clear
1:52 PM 75.0 °F - 64.9 °F 71% 29.81 in 10.0 mi South 15.0 mph - N/A   Clear
2:52 PM 78.1 °F - 66.0 °F 66% 29.81 in 10.0 mi South 15.0 mph 23.0 mph N/A   Clear
3:52 PM 81.0 °F 83.3 °F 66.9 °F 62% 29.81 in 10.0 mi South 16.1 mph 25.3 mph N/A   Clear
4:52 PM 82.9 °F 85.0 °F 66.0 °F 56% 29.79 in 10.0 mi South 18.4 mph 27.6 mph N/A   Scattered Clouds
5:52 PM 80.1 °F 81.7 °F 64.0 °F 58% 29.79 in 10.0 mi South 16.1 mph - N/A   Clear
6:52 PM 80.1 °F 81.9 °F 64.9 °F 60% 29.78 in 10.0 mi South 19.6 mph 25.3 mph N/A   Clear
7:52 PM 78.1 °F - 64.0 °F 62% 29.78 in 10.0 mi South 16.1 mph 23.0 mph N/A   Clear
8:52 PM 75.0 °F - 63.0 °F 66% 29.79 in 10.0 mi South 11.5 mph - N/A   Clear
9:52 PM 72.0 °F - 63.0 °F 73% 29.85 in 10.0 mi South 8.1 mph - N/A   Clear
10:52 PM 69.1 °F - 62.1 °F 78% 29.86 in 10.0 mi South 6.9 mph - N/A   Clear
11:52 PM 68.0 °F - 62.1 °F 81% 29.86 in 10.0 mi South 8.1 mph - N/A   Clear